Welkom

Welkom op Stormcell.be, dé website waar (on)weer al sinds 2011 anders wordt bekeken.

Op onze site vindt de bezoeker duidelijke weermodellen, data van het StormCell weerstation in regio Ninove (België) én kan men het onweer live volgen via lightningmaps.org.

We beschikken over een Facebook pagina waar weergerelateerde berichten worden gedeeld en waar we zelf ook waarschuwingen uitsturen indien nodig.

U leest het goed: indien nodig, dus geen onheilspellende berichten als de storm slechts in een glas water zal woeden. We zijn niet uit op sensatie of het zaaien van angst. We bekijken het (on)weer met klare kijk op de feiten. 

[Source: ADDS]
METAR
EBBR 220650Z 18011KT CAVOK M02/M06 Q1007 NOSIG =
EBBR 220520Z 2206/2312 18011KT CAVOK TEMPO 2210/2215 2000 SN BKN006 PROB40 TEMPO 2210/2215 0700 SN BKN002 BECMG 2213/2215 BKN005 PROB30 TEMPO 2214/2303 BKN018 TEMPO 2303/2312 1800 SHSN BKN005 PROB40 TEMPO 2303/2312 0700 SHSN BKN002 BECMG 2310/2312 VRB03KT
TAF
EBBR 220520Z 2206/2312 18011KT CAVOK TEMPO 2210/2215 2000 SN BKN006 PROB40 TEMPO 2210/2215 0700 SN BKN002 BECMG 2213/2215 BKN005 PROB30 TEMPO 2214/2303 BKN018 TEMPO 2303/2312 1800 SHSN BKN005 PROB40 TEMPO 2303/2312 0700 SHSN BKN002 BECMG 2310/2312 VRB03KT =

Visweer Vlissingen

Please publish modules in offcanvas position.

StormCell is een non profit organisatie zonder oogmerk tot sensatie